EW1107 Weather Reports


Display with metric or nautical units.
time (UTC)temp
F
wind
direction
speed
MPH
gust
MPH
rain 1hr
in
rain 24hr
in
rain mn
in
humidity
%
barometer
mb
20260901092042 65 248 12.0 31.0 0.00 0.07 0.01 76 1015.2
20260901091544 65 292 12.0 40.0 0.00 0.07 0.01 75 1015.1
20260901091041 66 268 22.0 40.0 0.00 0.07 0.01 73 1015.1
20260901090541 67 269 14.0 34.0 0.00 0.07 0.01 73 1015.1
20260901090046 67 252 15.0 30.0 0.00 0.07 0.01 74 1015.0
20260901085539 66 232 18.0 34.0 0.00 0.07 0.01 75 1015.1
20260901085039 66 268 17.0 34.0 0.00 0.07 0.01 75 1015.0
20260901084543 65 168 13.0 30.0 0.00 0.07 0.01 75 1015.0
20260901084040 66 272 14.0 29.0 0.00 0.07 0.01 75 1015.0
20260901083537 65 282 17.0 29.0 0.00 0.07 0.01 76 1015.0
20260901083038 65 244 7.0 37.0 0.00 0.07 0.01 77 1015.0
20260901082538 65 242 13.0 37.0 0.00 0.07 0.01 75 1015.1
20260901082036 65 265 9.0 27.0 0.00 0.07 0.01 77 1015.0
20260901081534 64 268 14.0 24.0 0.00 0.07 0.01 78 1015.0
20260901081034 65 283 16.0 24.0 0.00 0.07 0.01 78 1014.9
20260901080534 65 268 11.0 32.0 0.00 0.07 0.01 78 1015.0
20260901080034 65 207 13.0 32.0 0.00 0.07 0.01 77 1015.0
20260901075533 65 265 5.0 27.0 0.00 0.07 0.01 79 1015.0
20260901075033 64 302 10.0 27.0 0.00 0.07 0.01 79 1015.0
20260901074535 64 340 12.0 26.0 0.00 0.07 0.01 79 1014.8
20260901074031 65 291 13.0 26.0 0.00 0.07 0.01 79 1014.9
20260901073529 64 274 9.0 25.0 0.00 0.07 0.01 80 1014.9
20260901073029 64 250 13.0 33.0 0.00 0.07 0.01 79 1015.0
20260901072530 64 251 10.0 34.0 0.00 0.07 0.01 81 1014.9
20260901072027 63 286 13.0 28.0 0.00 0.07 0.01 81 1014.8
20260901071526 63 234 9.0 24.0 0.00 0.07 0.01 83 1014.8
20260901071024 62 315 8.0 26.0 0.00 0.07 0.01 83 1014.8
20260901070524 62 280 7.0 32.0 0.00 0.07 0.01 83 1014.7
20260901070024 62 283 10.0 33.0 0.00 0.07 0.01 83 1014.7
20260901065522 62 281 12.0 28.0 0.00 0.07 0.01 82 1014.7
20260901065021 62 266 13.0 24.0 0.00 0.07 0.01 82 1014.6
20260901064521 62 294 12.0 24.0 0.00 0.07 0.01 83 1014.6
20260901064021 62 254 9.0 19.0 0.00 0.07 0.01 83 1014.5
20260901063518 62 221 9.0 19.0 0.00 0.07 0.01 84 1014.5
20260901063024 62 207 9.0 26.0 0.00 0.07 0.01 85 1014.5
20260901062517 62 286 14.0 26.0 0.00 0.07 0.01 85 1014.5
20260901062115 62 278 11.0 25.0 0.00 0.07 0.01 85 1014.5
20260901061516 61 311 9.0 21.0 0.00 0.07 0.01 86 1014.4
20260901061013 61 261 10.0 25.0 0.00 0.07 0.01 87 1014.4
20260901060515 61 238 11.0 25.0 0.00 0.07 0.01 87 1014.3
20260901060010 61 271 10.0 20.0 0.00 0.07 0.01 87 1014.3
20260901055510 61 239 9.0 17.0 0.00 0.07 0.01 87 1014.3
20260901055010 61 229 8.0 17.0 0.00 0.07 0.01 87 1014.3
20260901054510 60 256 8.0 17.0 0.00 0.07 0.01 88 1014.2
20260901054009 60 260 2.0 16.0 0.00 0.07 0.01 88 1014.2
20260901053508 60 278 4.0 13.0 0.00 0.07 0.01 88 1014.2
20260901053007 60 240 2.0 17.0 0.00 0.07 0.01 89 1014.1
20260901052506 60 263 5.0 17.0 0.00 0.07 0.01 89 1014.0
20260901052006 60 252 8.0 16.0 0.00 0.07 0.01 89 1014.0
20260901051505 60 262 1.0 17.0 0.00 0.07 0.01 90 1013.8
20260901051007 59 252 4.0 17.0 0.00 0.07 0.01 91 1013.9
20260901050504 59 261 4.0 10.0 0.00 0.07 0.01 91 1013.7
20260901050003 59 360 2.0 8.0 0.00 0.07 0.01 92 1013.8
20260901045501 58 259 3.0 8.0 0.00 0.07 0.01 92 1013.7
20260901045100 58 227 0.0 1.0 0.00 0.07 0.01 92 1013.7
20260901044606 58 254 0.0 2.0 0.00 0.07 0.01 92 1013.7
20260901044103 58 254 0.0 3.0 0.00 0.07 0.01 92 1013.6
20260901043557 58 254 0.0 5.0 0.00 0.07 0.01 92 1013.6
20260901043056 58 253 1.0 5.0 0.00 0.07 0.01 92 1013.6
20260901042555 57 230 1.0 4.0 0.00 0.07 0.01 92 1013.5
20260901042053 57 360 0.0 0.0 0.00 0.07 0.01 92 1013.4
20260901041655 58 360 0.0 0.0 0.00 0.07 0.01 92 1013.4
20260901041055 58 222 0.0 0.0 0.00 0.07 0.01 92 1013.4
20260901040553 58 222 0.0 0.0 0.00 0.07 0.01 92 1013.3
20260901040052 58 220 0.0 4.0 0.00 0.07 0.01 92 1013.2
20260901035552 58 214 0.0 5.0 0.00 0.07 0.01 92 1013.2
20260901035052 58 360 3.0 5.0 0.00 0.07 0.01 92 1013.1
20260901034551 58 230 1.0 6.0 0.00 0.07 0.01 92 1013.1
20260901034051 58 243 2.0 6.0 0.00 0.07 0.01 92 1013.1
20260901033551 58 223 0.0 6.0 0.00 0.07 0.01 92 1013.1
20260901033106 58 215 0.0 0.0 0.00 0.07 0.01 92 1013.0
20260901032551 58 215 0.0 0.0 0.00 0.07 0.01 92 1012.9
20260901032049 58 217 0.0 0.0 0.00 0.07 0.01 92 1012.9
20260901031549 58 217 0.0 0.0 0.00 0.07 0.01 92 1012.9
20260901031048 58 217 0.0 0.0 0.00 0.07 0.01 92 1012.9
20260901030548 58 217 0.0 0.0 0.00 0.07 0.01 92 1012.8
20260901030052 59 217 0.0 0.0 0.00 0.07 0.01 92 1012.8
20260901025547 59 217 0.0 0.0 0.00 0.07 0.01 92 1012.8
20260901025047 59 217 0.0 0.0 0.00 0.07 0.01 92 1012.8
20260901024546 59 217 0.0 0.0 0.00 0.07 0.01 92 1012.9
20260901024046 59 215 0.0 0.0 0.00 0.07 0.01 92 1012.9
20260901023544 59 215 0.0 0.0 0.00 0.07 0.01 92 1012.8
20260901023047 59 215 0.0 0.0 0.00 0.07 0.01 91 1012.8
20260901022544 60 215 0.0 6.0 0.00 0.07 0.01 92 1012.9
20260901022043 60 215 0.0 6.0 0.00 0.07 0.01 92 1012.7
20260901021558 60 219 1.0 8.0 0.00 0.07 0.01 92 1012.8
20260901021143 60 220 3.0 8.0 0.01 0.07 0.01 92 1012.8
20260901020542 60 202 2.0 6.0 0.01 0.07 0.01 92 1012.8
20260901020041 60 360 1.0 6.0 0.01 0.07 0.01 92 1012.8
20260901015540 60 209 1.0 6.0 0.01 0.07 0.01 92 1012.8
20260901015039 60 211 2.0 6.0 0.01 0.07 0.01 92 1012.8
20260901014539 60 211 2.0 8.0 0.01 0.07 0.01 92 1012.9
20260901014038 61 233 4.0 8.0 0.01 0.07 0.01 92 1012.8
20260901013538 61 225 3.0 6.0 0.01 0.07 0.01 92 1012.7
20260901013049 61 360 3.0 6.0 0.01 0.07 0.01 92 1012.6
20260901012536 61 220 3.0 7.0 0.01 0.07 0.01 92 1012.6
20260901012036 61 360 3.0 9.0 0.01 0.07 0.01 92 1012.6
20260901011558 61 360 3.0 9.0 0.01 0.07 0.01 92 1012.7
20260901011036 61 223 4.0 8.0 0.00 0.06 0.00 92 1012.7
20260901010536 61 236 2.0 12.0 0.00 0.06 0.00 93 1012.7
20260901010036 61 238 3.0 12.0 0.00 0.06 0.00 93 1012.8
20260901005537 61 225 2.0 8.0 0.00 0.06 0.00 93 1012.8
20260901005039 61 227 2.0 8.0 0.00 0.06 0.00 94 1012.8
20260901004536 61 215 3.0 8.0 0.00 0.06 0.00 94 1012.7
20260901004035 61 220 2.0 7.0 0.00 0.06 0.00 94 1012.7
20260901003536 61 210 2.0 8.0 0.00 0.06 0.00 95 1012.7
20260901003045 61 231 1.0 8.0 0.00 0.06 0.00 95 1012.8
20260901002535 61 228 0.0 0.0 0.00 0.06 0.00 95 1012.8
20260901002034 61 223 0.0 0.0 0.00 0.06 0.00 95 1012.9
20260901001534 61 223 0.0 0.0 0.00 0.06 0.00 95 1012.8
20260901001034 61 210 0.0 0.0 0.00 0.06 0.00 95 1012.6
20260901000035 61 212 0.0 0.0 0.00 0.06 0.00 95 1012.8
20260831235532 61 202 0.0 0.0 0.00 0.06 0.00 95 1012.8
20260831235032 61 205 0.0 0.0 0.00 0.06 0.00 95 1012.8
20260831234532 61 207 0.0 0.0 0.00 0.06 0.00 95 1012.8
20260831234032 61 183 0.0 0.0 0.00 0.06 0.00 95 1012.7
20260831233531 61 198 0.0 0.0 0.00 0.06 0.00 95 1012.8
20260831233030 61 207 0.0 0.0 0.00 0.06 0.00 95 1012.8
20260831232530 61 207 0.0 0.0 0.00 0.06 0.00 95 1012.9
20260831232030 61 209 0.0 0.0 0.00 0.06 0.00 95 1012.9
20260831231529 61 209 0.0 0.0 0.00 0.06 0.00 95 1012.9
20260831231030 61 209 0.0 0.0 0.00 0.06 0.00 95 1013.0
20260831230527 61 209 0.0 0.0 0.00 0.06 0.00 95 1013.1
20260831230028 61 211 0.0 0.0 0.00 0.06 0.00 95 1013.1
20260831225526 61 211 0.0 0.0 0.00 0.06 0.00 95 1013.1
20260831225026 61 211 0.0 0.0 0.00 0.06 0.00 95 1013.2
20260831224526 61 211 0.0 0.0 0.00 0.06 0.00 94 1013.2
20260831224025 62 211 0.0 0.0 0.00 0.06 0.00 94 1013.1
20260831223525 62 211 0.0 0.0 0.00 0.06 0.00 95 1013.2
20260831223033 62 211 0.0 0.0 0.00 0.06 0.00 95 1013.2
20260831222528 62 211 0.0 0.0 0.00 0.06 0.00 95 1013.3
20260831222025 62 221 0.0 0.0 0.00 0.06 0.00 95 1013.4
20260831221523 62 222 0.0 0.0 0.00 0.06 0.00 95 1013.4
20260831221022 62 236 0.0 0.0 0.00 0.06 0.00 94 1013.3
20260831220521 62 193 0.0 0.0 0.00 0.06 0.00 94 1013.2
20260831215520 62 199 0.0 0.0 0.00 0.06 0.06 94 1013.2
20260831215020 62 211 0.0 0.0 0.00 0.06 0.06 94 1013.1
20260831214520 62 227 0.0 0.0 0.00 0.06 0.06 94 1013.1
20260831214019 62 216 0.0 0.0 0.00 0.06 0.06 94 1013.0
20260831213519 62 215 0.0 0.0 0.00 0.06 0.06 94 1013.0
20260831213020 63 186 0.0 0.0 0.00 0.06 0.06 94 1013.0
20260831212519 63 186 0.0 0.0 0.00 0.06 0.06 94 1012.9
20260831212020 63 186 0.0 0.0 0.00 0.06 0.06 94 1012.8
20260831211532 63 186 0.0 0.0 0.00 0.06 0.06 94 1012.9
20260831211019 63 186 0.0 0.0 0.00 0.06 0.06 94 1013.1
20260831210521 63 175 0.0 0.0 0.00 0.06 0.06 94 1013.3
20260831210018 63 179 0.0 0.0 0.00 0.06 0.06 94 1013.1
20260831205520 63 198 0.0 0.0 0.00 0.06 0.06 94 1013.1
20260831205021 63 198 0.0 0.0 0.00 0.06 0.06 94 1013.0
20260831204518 63 198 0.0 0.0 0.00 0.06 0.06 93 1013.0
20260831204018 63 223 0.0 0.0 0.00 0.06 0.06 93 1013.0
20260831203517 63 223 0.0 0.0 0.00 0.06 0.06 93 1013.0
20260831203022 63 223 0.0 0.0 0.00 0.06 0.06 93 1013.0
20260831202521 63 223 0.0 0.0 0.00 0.06 0.06 93 1012.9
20260831202019 63 223 0.0 0.0 0.00 0.06 0.06 93 1013.0
20260831201518 64 223 0.0 0.0 0.00 0.06 0.06 93 1013.0
20260831201018 64 223 0.0 0.0 0.00 0.06 0.06 93 1013.0
20260831200516 64 223 0.0 0.0 0.00 0.06 0.06 93 1013.0
20260831200023 64 223 0.0 0.0 0.00 0.06 0.06 93 1013.0
20260831195517 64 223 0.0 0.0 0.00 0.06 0.06 93 1013.0
20260831195017 64 223 0.0 0.0 0.00 0.06 0.06 93 1012.9
20260831194521 64 223 0.0 0.0 0.00 0.06 0.06 93 1012.9
20260831194016 64 230 0.0 0.0 0.00 0.06 0.06 93 1012.9
20260831193516 64 227 0.0 0.0 0.00 0.06 0.06 92 1013.0
20260831193017 65 227 0.0 0.0 0.00 0.06 0.06 92 1012.9
20260831192516 65 231 0.0 0.0 0.00 0.06 0.06 92 1012.9
20260831192018 65 232 0.0 0.0 0.00 0.06 0.06 92 1012.9
20260831191517 65 221 0.0 0.0 0.00 0.06 0.06 92 1012.9
20260831191015 65 211 0.0 0.0 0.00 0.06 0.06 92 1012.9
20260831190515 65 209 0.0 0.0 0.00 0.06 0.06 92 1012.9
20260831190015 65 209 0.0 0.0 0.00 0.06 0.06 92 1012.8
20260831185615 65 209 0.0 1.0 0.00 0.06 0.06 92 1012.9
20260831185014 65 209 0.0 6.0 0.00 0.06 0.06 92 1012.8
20260831184514 66 211 3.0 7.0 0.00 0.06 0.06 91 1012.8
20260831184014 66 360 2.0 7.0 0.00 0.06 0.06 91 1012.8
20260831183517 66 194 2.0 6.0 0.00 0.06 0.06 91 1012.7
20260831183014 66 205 0.0 0.0 0.00 0.06 0.06 91 1012.7
20260831182514 66 205 0.0 0.0 0.00 0.06 0.06 91 1012.7
20260831182014 66 205 0.0 0.0 0.00 0.06 0.06 91 1012.6
20260831181514 66 205 0.0 0.0 0.00 0.06 0.06 90 1012.6
20260831181013 66 205 0.0 0.0 0.00 0.06 0.06 90 1012.5
20260831180512 66 205 0.0 0.0 0.00 0.06 0.06 90 1012.3
20260831180012 67 205 0.0 0.0 0.00 0.06 0.06 89 1012.3
20260831175512 67 205 0.0 0.0 0.00 0.06 0.06 89 1012.3
20260831175012 67 205 0.0 0.0 0.00 0.06 0.06 89 1012.3
20260831174512 67 205 0.0 0.0 0.00 0.06 0.06 88 1012.2
20260831174012 67 205 0.0 4.0 0.00 0.06 0.06 88 1012.2
20260831173512 68 205 0.0 5.0 0.00 0.06 0.06 88 1012.3
20260831173012 68 205 1.0 5.0 0.00 0.06 0.06 87 1012.3
20260831172512 68 220 0.0 7.0 0.00 0.06 0.06 87 1012.2
20260831172011 68 236 1.0 7.0 0.00 0.06 0.06 87 1012.2
20260831171511 68 233 3.0 7.0 0.00 0.06 0.06 86 1012.3
20260831171011 69 225 2.0 10.0 0.00 0.06 0.06 86 1012.2
20260831170510 69 224 3.0 7.0 0.00 0.06 0.06 86 1012.2
20260831170011 69 257 3.0 8.0 0.00 0.06 0.06 85 1012.2
20260831165509 69 244 3.0 9.0 0.00 0.06 0.06 85 1012.1
20260831165109 69 198 2.0 9.0 0.00 0.06 0.06 84 1012.0
20260831164608 70 224 2.0 15.0 0.00 0.06 0.06 84 1012.0
20260831164008 70 215 6.0 15.0 0.00 0.06 0.06 84 1012.1
20260831163509 70 263 5.0 19.0 0.00 0.06 0.06 84 1012.1
20260831163008 70 228 8.0 19.0 0.00 0.06 0.06 84 1012.1
20260831162509 70 220 5.0 17.0 0.00 0.06 0.06 84 1012.1
20260831162008 70 239 5.0 23.0 0.00 0.06 0.06 84 1012.1
20260831161507 70 211 4.0 23.0 0.00 0.06 0.06 83 1012.2
20260831161013 70 213 9.0 18.0 0.00 0.06 0.06 83 1012.2
20260831160506 70 270 6.0 18.0 0.00 0.06 0.06 84 1012.2
20260831160006 70 212 9.0 18.0 0.00 0.06 0.06 85 1012.2
20260831155506 70 225 11.0 17.0 0.00 0.06 0.06 85 1012.2
20260831155006 70 215 6.0 15.0 0.00 0.06 0.06 86 1012.3
20260831154506 70 221 6.0 16.0 0.00 0.06 0.06 86 1012.3
20260831154005 70 215 8.0 19.0 0.00 0.06 0.06 85 1012.3
20260831153509 70 205 9.0 19.0 0.00 0.06 0.06 85 1012.4
20260831153007 70 198 8.0 14.0 0.00 0.06 0.06 86 1012.3
20260831152505 70 233 8.0 15.0 0.00 0.06 0.06 86 1012.3
20260831152004 70 218 6.0 15.0 0.00 0.06 0.06 88 1012.3
20260831151504 69 227 9.0 16.0 0.00 0.06 0.06 88 1012.3
20260831151004 69 255 7.0 15.0 0.00 0.06 0.06 89 1012.3
20260831150505 69 217 7.0 12.0 0.00 0.06 0.06 89 1012.4
20260831150005 69 203 5.0 12.0 0.00 0.06 0.06 90 1012.3
20260831145504 69 215 4.0 9.0 0.00 0.06 0.06 90 1012.3
20260831145009 69 196 3.0 10.0 0.00 0.06 0.06 90 1012.2
20260831144003 69 211 6.0 14.0 0.00 0.06 0.06 90 1012.2
20260831143503 69 201 4.0 11.0 0.00 0.06 0.06 91 1012.2
20260831143003 68 211 3.0 9.0 0.00 0.06 0.06 93 1012.2
20260831142502 68 175 0.0 7.0 0.00 0.06 0.06 92 1012.2
20260831142001 68 175 2.0 7.0 0.00 0.06 0.06 93 1012.2
20260831141502 67 128 1.0 4.0 0.00 0.06 0.06 92 1012.1
20260831141001 67 164 0.0 0.0 0.00 0.06 0.06 92 1012.2
20260831140501 67 163 0.0 0.0 0.01 0.06 0.06 92 1012.2
20260831140001 67 164 0.0 0.0 0.02 0.06 0.06 92 1012.1
20260831135601 67 164 0.0 1.0 0.02 0.06 0.06 91 1012.2
20260831135102 67 179 0.0 5.0 0.03 0.06 0.06 91 1012.3
20260831134605 67 183 2.0 5.0 0.04 0.06 0.06 91 1012.3
20260831134502 67 213 1.0 5.0 0.05 0.06 0.06 91 1012.3
20260831134059 67 181 0.0 3.0 0.05 0.06 0.06 91 1012.2
20260831133559 66 198 0.0 6.0 0.05 0.06 0.06 90 1012.3
20260831133105 66 198 1.0 8.0 0.06 0.06 0.06 90 1012.5
20260831132559 66 204 4.0 10.0 0.06 0.06 0.06 89 1012.6
20260831132059 67 209 5.0 10.0 0.06 0.06 0.06 89 1012.6
20260831131604 67 228 3.0 10.0 0.06 0.06 0.06 89 1012.5
20260831131059 67 221 0.0 8.0 0.06 0.06 0.06 89 1012.5
20260831130559 67 247 3.0 12.0 0.06 0.06 0.06 89 1012.7
20260831130059 68 248 2.0 15.0 0.05 0.05 0.05 89 1012.8
20260831125558 68 243 5.0 15.0 0.04 0.04 0.04 88 1012.9
20260831125056 68 284 1.0 9.0 0.02 0.02 0.02 88 1012.9
20260831124557 68 259 3.0 13.0 0.02 0.02 0.02 87 1012.8
20260831123556 69 263 3.0 11.0 0.02 0.02 0.02 86 1012.9
20260831123056 69 203 4.0 11.0 0.01 0.01 0.01 85 1012.8
20260831122559 69 213 4.0 10.0 0.01 0.01 0.01 84 1012.8
20260831122056 69 232 4.0 10.0 0.01 0.01 0.01 84 1012.7
20260831121556 70 238 3.0 10.0 0.01 0.01 0.01 83 1012.7
20260831121059 70 189 5.0 10.0 0.01 0.01 0.01 82 1012.7
20260831120657 70 225 5.0 15.0 0.00 0.00 0.00 81 1012.7
20260831120058 71 208 6.0 25.0 0.00 0.00 0.00 78 1012.7
20260831115554 72 202 12.0 25.0 0.00 0.00 0.00 76 1012.8
20260831115056 73 171 10.0 30.0 0.00 0.00 0.00 74 1012.8
20260831114554 73 215 14.0 30.0 0.00 0.00 0.00 71 1012.8
20260831114054 73 212 14.0 25.0 0.00 0.00 0.00 71 1012.6
20260831113554 74 204 10.0 24.0 0.00 0.00 0.00 72 1012.6
20260831113056 74 215 6.0 30.0 0.00 0.00 0.00 73 1012.6
20260831112555 75 211 13.0 25.0 0.00 0.00 0.00 72 1012.5
20260831112052 75 196 12.0 27.0 0.00 0.00 0.00 72 1012.6
20260831111609 74 213 9.0 24.0 0.00 0.00 0.00 72 1012.5
20260831111052 74 197 9.0 21.0 0.00 0.00 0.00 71 1012.4
20260831110552 74 218 7.0 17.0 0.00 0.00 0.00 71 1012.4
20260831110052 74 206 5.0 10.0 0.00 0.00 0.00 72 1012.4
20260831105552 74 218 5.0 15.0 0.00 0.00 0.00 71 1012.4
20260831105052 75 199 4.0 15.0 0.00 0.00 0.00 71 1012.4
20260831104552 75 200 3.0 11.0 0.00 0.00 0.00 71 1012.2
20260831104051 75 179 3.0 11.0 0.00 0.00 0.00 70 1012.2
20260831103057 75 215 8.0 18.0 0.00 0.00 0.00 68 1012.2
20260831102550 75 220 8.0 18.0 0.00 0.00 0.00 68 1012.2
20260831102050 75 202 5.0 14.0 0.00 0.00 0.00 68 1012.3
20260831101555 75 192 9.0 14.0 0.00 0.00 0.00 67 1012.2
20260831101051 76 215 7.0 11.0 0.00 0.00 0.00 68 1012.2
20260831100552 76 162 6.0 13.0 0.00 0.00 0.00 68 1012.2
20260831100049 76 163 6.0 13.0 0.00 0.00 0.00 67 1012.2
20260831095553 76 180 4.0 9.0 0.00 0.00 0.00 68 1012.1
20260831095049 76 215 3.0 13.0 0.00 0.00 0.00 68 1012.2
20260831094549 76 150 5.0 13.0 0.00 0.00 0.00 67 1012.2
20260831094053 76 199 3.0 12.0 0.00 0.00 0.00 67 1012.2
20260831093547 76 163 5.0 12.0 0.00 0.00 0.00 67 1012.2
20260831093047 76 190 1.0 13.0 0.00 0.00 0.00 67 1012.2